{"data":{"norad_id":59806,"intl_designator":"2024-094B","name":"2024-094B","alt_names":[],"object_type":"PAYLOAD","status":"ACTIVE","operator":null,"country":"PRC","launch_date":"2024-05-20","launch_site_code":"TAISC","launch_vehicle":null,"mission":null,"orbit_class":"UNKNOWN","rcs_meters":null,"size_class":null,"mass_kg":null,"dimensions":null,"purposes":[],"wikipedia_slug":null,"has_3d_model":false,"image_url":null,"decayed_at":null,"tle_current":{"epoch":"2026-09-22T23:15:36.484992Z","epoch_age_seconds":59420,"freshness":"FRESH","line1":"1 59806U 24094B   26265.96917228  .00003756  00000+0  19314-3 0  9993","line2":"2 59806  97.3812 334.4743 0006187 112.2859 247.9031 15.17034397129983","mean_motion":15.17034397,"eccentricity":0.0006187,"inclination_deg":97.3812,"raan_deg":334.4743,"arg_perigee_deg":112.2859,"mean_anomaly_deg":247.9031,"bstar":0.00019314,"rev_number":12998,"period_min":94.922040188915,"perigee_km":510.54454217003,"apogee_km":519.07387380779,"semimajor_km":6892.9462079889,"source":"CELESTRAK","updated_at":"2026-09-23T09:00:19.589090Z"}}}